Overview Statistics Trail Chart Weather Telemetry Raw packets
 

This is the latest recevied weather packets stored in our database for station/object EA3IK-1. If no packets are shown the sender has not sent any weather packets the latest 10 day(s).

<< 34 35 36 37 38 39 >>
Time Temp. Humidity Pressure Rain* Wind** Luminosity Snow
1787794535 25.56° C 55% 1009.7 hPa 0 mm - - -
1787793634 25° C 53% 1009.8 hPa 0 mm - - -
1787792734 25° C 50% 1009.9 hPa 0 mm - - -
1787791833 25.56° C 47% 1010.2 hPa 0 mm - - -
1787790932 25.56° C 45% 1010.6 hPa 0 mm - - -
1787790031 25.56° C 45% 1011 hPa 0 mm - - -
1787789130 25° C 45% 1011.2 hPa 0 mm - - -
1787788229 24.44° C 46% 1011.4 hPa 0 mm - - -
1787787328 24.44° C 47% 1011.5 hPa 0 mm - - -
1787786427 25° C 46% 1011.2 hPa 0 mm - - -
1787785527 24.44° C 48% 1011.4 hPa 0 mm - - -
1787784626 24.44° C 50% 1011.5 hPa 0 mm - - -
1787783725 25° C 49% 1011.1 hPa 0 mm - - -
1787782824 25° C 50% 1011 hPa 0 mm - - -
1787781923 25° C 51% 1010.9 hPa 0 mm - - -
1787781022 25° C 52% 1010.8 hPa 0 mm - - -
1787780122 25.56° C 50% 1010.7 hPa 0 mm - - -
1787779221 25.56° C 50% 1010.7 hPa 0 mm - - -
1787778320 25.56° C 51% 1010.6 hPa 0 mm - - -
1787777419 26.11° C 53% 1010.6 hPa 0 mm - - -
1787776518 26.11° C 54% 1010.6 hPa 0 mm - - -
1787775617 26.11° C 55% 1010.6 hPa 0 mm - - -
1787774716 26.67° C 56% 1010.5 hPa 0 mm - - -
1787773816 26.67° C 58% 1010.3 hPa 0 mm - - -
1787772915 27.22° C 59% 1010.1 hPa 0 mm - - -

* Rain latest hour (hover to see other rain measurements)
** Current wind speed in m/s (hover to see current wind gust speed)